Humidity-temperature Sensor

Selected Measurement Type: Air Temperature

 
Air Temperature [°C]     6 entries per hour
Showing data from 6/12/2022 (00:00:00 Z) to 6/9/2022 (00:01:00 Z)
Previous Next [ Day | 3-Days | 7-Days ]
First Last
Prev [ Day | 3-Days | 7-Days ] Next
First Last

Start Time:     :
End Time:     :     
Time (in GMT) :00 :50 :40 :30 :20 :10
Previous Next [ Day | 3-Days | 7-Days ]
First Last
Prev [ Day | 3-Days | 7-Days ] Next
First Last


123 => good data
MM => data is determined as missing
-- => data not received/configured
Back to Top Back to Top
6/12/2022 00:00 to 23:10 26.25 26.33 26.43 26.59 26.58 26.66
6/11/2022 23:00 to 22:10 26.62 26.78 26.63 26.72 26.67 26.65
6/11/2022 22:00 to 21:10 26.55 26.76 26.55 26.50 26.75 26.51
6/11/2022 21:00 to 20:10 26.53 26.59 26.64 26.57 26.53 26.53
6/11/2022 20:00 to 19:10 26.56 26.65 26.63 26.65 26.54 26.57
6/11/2022 19:00 to 18:10 26.55 26.24 26.59 26.51 26.37 26.36
6/11/2022 18:00 to 17:10 26.41 26.30 26.31 26.50 26.62 26.57
6/11/2022 17:00 to 16:10 26.67 26.62 26.49 26.69 26.53 26.44
6/11/2022 16:00 to 15:10 26.49 26.65 26.48 26.38 26.67 26.52
6/11/2022 15:00 to 14:10 26.64 26.43 26.48 26.55 26.35 26.54
6/11/2022 14:00 to 13:10 26.43 26.34 26.36 26.58 26.30 26.36
6/11/2022 13:00 to 12:10 26.44 26.46 26.56 26.37 26.50 26.45
6/11/2022 12:00 to 11:10 26.46 26.41 26.53 26.60 26.35 26.41
6/11/2022 11:00 to 10:10 26.35 26.43 26.28 26.29 26.29 26.33
6/11/2022 10:00 to 9:10 26.44 26.27 26.24 26.46 26.32 26.21
6/11/2022 09:00 to 8:10 26.33 26.44 26.19 26.36 26.22 26.30
6/11/2022 08:00 to 7:10 26.41 26.38 26.31 26.35 26.40 26.41
6/11/2022 07:00 to 6:10 26.44 26.45 26.47 26.51 26.47 26.42
6/11/2022 06:00 to 5:10 26.46 26.47 26.47 26.45 26.38 26.46
6/11/2022 05:00 to 4:10 26.48 26.66 26.63 26.48 26.59 26.55
6/11/2022 04:00 to 3:10 26.60 26.58 26.58 26.52 26.52 26.60
6/11/2022 03:00 to 2:10 26.49 26.55 26.55 26.41 26.39 26.50
6/11/2022 02:00 to 1:10 26.57 26.45 26.51 26.43 26.55 26.38
6/11/2022 01:00 to 0:10 26.41 26.38 26.43 26.39 26.44 26.55
6/11/2022 00:00 to 23:10 26.46 26.48 26.41 26.49 26.32 26.30
6/10/2022 23:00 to 22:10 26.35 26.41 26.35 26.37 26.48 26.41
6/10/2022 22:00 to 21:10 26.43 26.49 26.58 26.49 26.57 26.45
6/10/2022 21:00 to 20:10 26.46 26.58 26.76 26.60 26.67 26.60
6/10/2022 20:00 to 19:10 26.48 26.60 26.57 26.45 26.72 26.52
6/10/2022 19:00 to 18:10 26.35 26.49 26.36 26.39 26.31 26.38
6/10/2022 18:00 to 17:10 26.24 26.32 26.25 26.40 26.37 26.25
6/10/2022 17:00 to 16:10 26.38 26.32 26.33 26.18 26.36 26.43
6/10/2022 16:00 to 15:10 26.06 26.17 26.24 26.01 26.27 26.26
6/10/2022 15:00 to 14:10 26.04 26.07 26.05 26.07 26.09 26.14
6/10/2022 14:00 to 13:10 26.25 26.21 26.00 26.13 26.04 26.03
6/10/2022 13:00 to 12:10 25.96 26.02 25.92 25.84 25.78 25.77
6/10/2022 12:00 to 11:10 25.68 25.69 25.76 25.85 25.95 25.80
6/10/2022 11:00 to 10:10 25.85 25.84 25.63 25.69 25.66 25.73
6/10/2022 10:00 to 9:10 25.66 25.64 25.66 25.72 25.72 25.70
6/10/2022 09:00 to 8:10 -- -- -- -- -- --
6/10/2022 08:00 to 7:10 25.72 25.85 25.62 25.73 25.81 25.89
6/10/2022 07:00 to 6:10 25.80 25.73 25.96 25.95 26.00 26.01
6/10/2022 06:00 to 5:10 25.86 26.11 25.86 25.91 25.94 25.81
6/10/2022 05:00 to 4:10 25.97 25.83 25.94 25.93 26.08 25.90
6/10/2022 04:00 to 3:10 25.87 25.84 25.88 25.95 25.86 25.86
6/10/2022 03:00 to 2:10 25.80 25.88 25.96 25.92 26.00 25.87
6/10/2022 02:00 to 1:10 25.79 25.87 25.91 25.92 25.99 26.04
6/10/2022 01:00 to 0:10 25.92 25.94 25.97 26.05 26.07 26.01
6/10/2022 00:00 to 23:10 26.12 26.04 26.03 26.25 26.16 26.25
6/9/2022 23:00 to 22:10 26.14 26.21 26.25 26.13 26.22 26.17
6/9/2022 22:00 to 21:10 26.12 26.17 26.17 26.15 26.35 26.31
6/9/2022 21:00 to 20:10 26.03 26.28 26.11 26.07 26.12 26.02
6/9/2022 20:00 to 19:10 26.08 26.12 26.24 26.00 26.31 26.33
6/9/2022 19:00 to 18:10 26.19 26.47 26.31 26.41 26.23 26.38
6/9/2022 18:00 to 17:10 26.26 26.14 26.48 26.26 26.52 26.27
6/9/2022 17:00 to 16:10 26.51 26.25 26.47 26.53 26.23 26.25
6/9/2022 16:00 to 15:10 26.26 26.32 26.27 26.23 26.25 26.27
6/9/2022 15:00 to 14:10 26.42 26.17 26.30 26.36 26.24 26.19
6/9/2022 14:00 to 13:10 25.96 26.00 25.96 25.90 26.07 25.89
6/9/2022 13:00 to 12:10 26.16 25.84 26.16 26.05 25.89 25.96
6/9/2022 12:00 to 11:10 26.00 25.81 25.89 25.87 25.88 25.90
6/9/2022 11:00 to 10:10 25.89 26.09 25.91 25.90 25.76 25.72
6/9/2022 10:00 to 9:10 25.89 25.89 25.91 26.00 26.07 26.12
6/9/2022 09:00 to 8:10 25.95 26.07 25.83 25.91 25.92 26.05
6/9/2022 08:00 to 7:10 26.16 25.95 26.04 26.06 26.11 26.17
6/9/2022 07:00 to 6:10 26.10 26.37 25.97 26.51 26.11 26.13
6/9/2022 06:00 to 5:10 26.15 25.98 26.17 26.09 26.08 26.18
6/9/2022 05:00 to 4:10 26.08 26.08 26.19 26.10 26.01 25.99
6/9/2022 04:00 to 3:10 26.03 26.10 26.09 26.10 25.90 26.06
6/9/2022 03:00 to 2:10 25.97 26.09 25.98 26.19 26.03 26.34
6/9/2022 02:00 to 1:10 25.93 25.94 26.04 25.96 26.05 26.06
6/9/2022 01:00 to 0:10 26.03 25.84 25.99 26.03 25.94 25.98